Showing default

LEMUR 2 THEFALCONER, 63264

Orbit data source: Space-Track

LEMUR 2 THEFALCONER, 63264 is a payload satellite owned by Spire (US) in SSO that was launched on Sat, 15 Mar 2025 UTC via an FALCON 9 launch vehicle from the Air Force Western Test Range (AFWTR). Payload-class satellites include a variety of spacecraft equipped with specific instruments for various scientific and technological missions. These include communications satellites like Starlink; space stations such as the ISS; scientific satellites like the Hubble; Earth observation satellites from companies like Planet Labs, Umbra, and HawkEye 360; GPS; miniature CubeSats for education and research; and military/defense satellites.

Loading next visibility...
Identifier
63264, 2025-052BG
Orbit
SSO
Country
Flag of USUS
Related business
Manufacturer
Spire/Glasgow
Mission
Operational Commercial Com/MetRO
Bus & Motor
CUBESAT 6U, Unknown motor
Mass
10 kg wet, 10 kg dry
Launch date (UTC)
2025-03-15 (1 year ago)
Launch vehicle
FALCON 9
Launch site
Air Force Western Test Range (AFWTR)
Object type
Payload
Rocket body
Debris
Shape & HBR
Box, 0.2 m
Radar Cross Section
0.080 m², Medium (>0.1 m² and < 1m²)

Expand to show TLE details & history
Last TLE update: 19 hours ago

TLE from 19 hours ago
0 LEMUR 2 THEFALCONER
1 63264U 25052BG  26072.29461179  .00005695  00000-0  50542-3 0  9995
2 63264  97.6967 326.2357 0001709   1.8314 358.2914 14.96556221 54348
Epoch: 2026-03-13T07:04Z
TLE epoch observation values (Epoch: 2026-03-13T07:04:14.458Z)
Latitude
0.00001°
Longitude
49.24325°
Altitude
579.408 km
Speed
7.571 km/s
True Right ascension
21h 44m 56s
True Declination
0° 00' 00"
Sunlit
Object was in daylight at epoch
Visualization orbit readout
Latitude
Unknown
Longitude
Unknown
Altitude
Unknown
Speed
Unknown
Apparent Right ascension
Unknown
Apparent Declination
Unknown
Sunlit
N/A
Visualization observer readout
Local Sidereal Time
06:12:56
Azimuth
Unknown
Elevation
Unknown
Doppler factor
Unknown
Orbital elements
Apogee altitude
575.745 km
Perigee altitude
573.368 km
Semi-major axis
6,952.693 km
Eccentricity
0.00017
Inclination
97.6967°
RAAN
326.2357°
Arg. of periapsis
1.8314°
True anomaly
358.29082°
Mean anomaly
358.2914°
Eccentric anomaly
358.29111°
Mean motion
3.74381 °/min
Orbital period
96.16 mins
BSTAR
0.00050542
Loading maneuver chart data...
Computing Atmospheric mass density...
Loading historical data...
Loading historical data...
Loading historical data...
Loading historical data...
Loading historical data...
Loading historical data...
Loading historical data...

Documentation

Showing up to 5 results
|